Miscellaneous Local Product
Issued by NWS North Platte, NE

Home | Current Version | Previous Version | Graphics & Text | Print | Product List | Glossary On
Versions: 1 2 3 4 5 6 7 8 9 10 11 12 13 14 15 16 17 18 19 20 21 22 23 24 25 26 27 28 29 30 31 32 33 34 35 36 37 38 39 40 41 42 43 44 45 46 47 48 49 50
000
AXUS43 KLBF 261110
MISLBF


WESTERN AND NORTH CENTRAL NEBRASKA HOURLY WEATHER ROUNDUP
NATIONAL WEATHER SERVICE NORTH PLATTE NE
600 AM CDT SUN APR 26 2015

***STATIONS NOT REPORTING VARIABLES SUCH AS SKY/WEATHER OR
PRESSURE ARE PROVIDED BY THE NEBRASKA DEPARTMENT OF
ROADS...RAWS...AND APRS NETWORKS...AND ARE NOT UNDER
NATIONAL WEATHER SERVICE QUALITY CONTROL***

...OBSERVATIONS IN AND NEAR THE EASTERN PANHANDLE OF NEBRASKA...

CITY           SKY/WX    TMP DP  RH WIND       PRES   REMARKS
PINE RIDGE     CLOUDY    49  45  86 E7        29.87S
CHADRON        LGT RAIN  47  46  97 NE9       29.86R FOG
ALLIANCE       CLOUDY    46  45  96 SE16      29.85R
SIDNEY         LGT RAIN  45  44  97 E8        29.85S
WHITECLAY        N/A     47  44  90 SE5         N/A
CRESCENT LAKE    N/A     45  45  99 SE10        N/A
BIG SPRINGS      N/A     47  46  95 E9          N/A
$$

...OBSERVATIONS IN NORTH CENTRAL NEBRASKA...

CITY           SKY/WX    TMP DP  RH WIND       PRES   REMARKS
VALENTINE      MOCLDY    45  40  82 SE10      29.93R
THEDFORD       CLOUDY    45  43  91 E7        29.94R
AINSWORTH      PTCLDY    41  40  95 SE5       29.94R FOG
O`NEILL        CLOUDY    47  41  80 SE8       29.96S
ORD            CLOUDY    43  39  86 E8        29.93R
BROKEN BOW     CLOUDY    46  41  82 SE10      29.93R
BROWNLEE         N/A     44  42  91 SE8         N/A
VALENTINE NWR    N/A     44  42  92 SE9G16      N/A
SPRINGVIEW       N/A     44  41  88 CALM        N/A
HALSEY           N/A     44  42  93 E6          N/A
BREWSTER         N/A     41  40  98 SE6         N/A
ROSE             N/A     40  39  99 E6          N/A
NEWPORT          N/A     44  42  91 SE8         N/A
SARGENT          N/A     43  41  93 E3          N/A
COMSTOCK         N/A     47  44  90 E8          N/A
EWING            N/A     46  40  81 E3          N/A
$$

...OBSERVATIONS IN SOUTHWEST NEBRASKA AND FAR NORTHEAST COLORADO...

CITY           SKY/WX    TMP DP  RH WIND       PRES   REMARKS
WRAY           CLOUDY   N/A N/A N/A E14G22    29.84R FOG
HOLYOKE        CLOUDY    46  43  87 E10       29.86S FOG
IMPERIAL       CLOUDY    45  43  93 SE15      29.86S FOG
OGALLALA       RAIN      46  45  97 E15       29.86S
MCCOOK         CLOUDY    46  44  93 NE12      29.88R FOG
LEXINGTON      DRIZZLE   46  44  93 E7        29.92R
PAXTON           N/A     46  44  92 E13         N/A
SUTHERLAND       N/A     39  37  93 E8          N/A  WCI  34
BRADY            N/A     44  42  91 CALM        N/A
GOTHENBURG       N/A     45  42  89 E7          N/A
CALLAWAY         N/A     44  43  95 E9          N/A
$$

...NORTH PLATTE AREA...

CITY           SKY/WX    TMP DP  RH WIND       PRES   REMARKS
$$

...SOME WEATHER OBSERVATIONS FROM AROUND THE REGION...

CITY           SKY/WX    TMP DP  RH WIND       PRES   REMARKS
DENVER         LGT RAIN  41  39  93 NE17      29.80R
LARAMIE        CLOUDY    35  34  96 W3        29.80S
CHEYENNE       CLOUDY    42  41  96 SE14      29.81S FOG
SCOTTSBLUFF    LGT RAIN  48  48 100 E9        29.81R
RAPID CITY     CLOUDY    43  41  93 N16       29.90R
PIERRE         CLOUDY    48  42  80 SE13      29.94S
WINNER         CLOUDY    47  42  83 E3        29.94R
SIOUX FALLS    PTCLDY    37  35  92 NE3       30.02R
OMAHA          CLEAR     41  39  93 N3        29.97R
GRAND ISLAND   CLOUDY    46  42  86 E13       29.93R
KANSAS CITY    CLOUDY    48  45  89 NE9       29.88R
WICHITA        CLOUDY    50  46  86 NE18      29.82R
HAYS           CLOUDY    46  37  71 E16       29.85S
LIBERAL        CLOUDY    54  46  76 E18G24    29.75R
GOODLAND       CLOUDY    44  43  96 E17       29.84R FOG
$$



USA.gov is the U.S. government's official web portal to all federal, state and local government web resources and services.